TimeEDT,TemperatureF,Dew PointF,Humidity,Sea Level PressureIn,VisibilityMPH,Wind Direction,Wind SpeedMPH,Gust SpeedMPH,PrecipitationIn,Events,Conditions,WindDirDegrees,DateUTC
12:52 AM,62.1,53.1,72,29.84,10.0,Calm,Calm,-,N/A,,Clear,0,2013-08-04 04:52:00
1:52 AM,61.0,53.1,75,29.84,10.0,North,5.8,-,N/A,,Clear,350,2013-08-04 05:52:00
2:52 AM,62.1,52.0,70,29.84,10.0,North,3.5,-,N/A,,Clear,360,2013-08-04 06:52:00
3:52 AM,62.1,52.0,70,29.84,10.0,NNE,3.5,-,N/A,,Clear,20,2013-08-04 07:52:00
4:52 AM,60.1,52.0,75,29.84,10.0,North,3.5,-,N/A,,Clear,10,2013-08-04 08:52:00
5:52 AM,57.0,53.1,87,29.85,10.0,NNW,3.5,-,N/A,,Clear,340,2013-08-04 09:52:00
6:52 AM,60.1,53.1,78,29.85,10.0,NNW,4.6,-,N/A,,Clear,340,2013-08-04 10:52:00
7:52 AM,64.9,54.0,68,29.85,10.0,NW,5.8,-,N/A,,Clear,320,2013-08-04 11:52:00
8:52 AM,71.1,55.0,57,29.84,10.0,WNW,9.2,-,N/A,,Clear,290,2013-08-04 12:52:00
9:52 AM,73.0,55.0,53,29.84,10.0,WNW,9.2,-,N/A,,Mostly Cloudy,290,2013-08-04 13:52:00
10:52 AM,75.0,53.1,46,29.84,10.0,WNW,9.2,-,N/A,,Clear,290,2013-08-04 14:52:00
11:52 AM,75.9,54.0,46,29.84,10.0,NW,8.1,-,N/A,,Scattered Clouds,310,2013-08-04 15:52:00
12:52 PM,79.0,54.0,42,29.83,10.0,NW,10.4,-,N/A,,Scattered Clouds,310,2013-08-04 16:52:00
1:52 PM,77.0,53.1,43,29.81,10.0,WNW,10.4,-,N/A,,Mostly Cloudy,290,2013-08-04 17:52:00
2:52 PM,78.1,52.0,40,29.80,10.0,WNW,12.7,-,N/A,,Partly Cloudy,300,2013-08-04 18:52:00
3:52 PM,79.0,50.0,36,29.80,10.0,WNW,12.7,18.4,N/A,,Clear,290,2013-08-04 19:52:00
4:52 PM,73.0,54.0,51,29.82,10.0,WNW,11.5,-,0.00,,Scattered Clouds,290,2013-08-04 20:52:00
5:52 PM,75.9,50.0,40,29.82,10.0,NNW,13.8,19.6,N/A,,Clear,340,2013-08-04 21:52:00
6:52 PM,73.0,51.1,46,29.85,10.0,NW,11.5,-,N/A,,Clear,310,2013-08-04 22:52:00
7:52 PM,70.0,54.0,57,29.86,10.0,NW,4.6,-,N/A,,Clear,320,2013-08-04 23:52:00
8:52 PM,66.0,55.0,68,29.88,10.0,Calm,Calm,-,N/A,,Clear,0,2013-08-05 00:52:00
9:52 PM,64.0,55.0,73,29.90,10.0,North,5.8,-,N/A,,Clear,350,2013-08-05 01:52:00
10:52 PM,60.1,55.0,83,29.91,10.0,NNW,5.8,-,N/A,,Clear,330,2013-08-05 02:52:00
11:52 PM,60.1,53.1,78,29.92,10.0,Calm,Calm,-,N/A,,Clear,0,2013-08-05 03:52:00